Time,TemperatureF,DewpointF,PressureIn,WindDirection,WindDirectionDegrees,WindSpeedMPH,WindSpeedGustMPH,Humidity,HourlyPrecipIn,Conditions,Clouds,dailyrainin,SoftwareType,DateUTC
2013-06-22 00:01:00,58.1,57.8,30.17,ESE,113,0.0,0.0,99,0.00,,,0.00,Wunderground v.1.15,2013-06-22 04:01:00,
2013-06-22 00:03:00,58.0,57.7,30.17,ESE,113,0.0,0.0,99,0.00,,,0.00,Wunderground v.1.15,2013-06-22 04:03:00,
2013-06-22 00:04:00,57.9,57.6,30.16,ESE,113,0.0,0.0,99,0.00,,,0.00,Wunderground v.1.15,2013-06-22 04:04:00,
2013-06-22 00:08:00,57.8,57.5,30.16,ESE,113,0.0,0.0,99,0.00,,,0.00,Wunderground v.1.15,2013-06-22 04:08:00,
2013-06-22 00:13:00,57.8,57.5,30.16,ESE,113,0.0,0.0,99,0.00,,,0.00,Wunderground v.1.15,2013-06-22 04:13:00,
2013-06-22 00:19:00,57.8,57.5,30.16,ESE,113,0.0,0.0,99,0.00,,,0.00,Wunderground v.1.15,2013-06-22 04:19:00,
2013-06-22 00:25:00,57.6,57.3,30.16,ESE,113,0.0,0.0,99,0.00,,,0.00,Wunderground v.1.15,2013-06-22 04:25:00,
2013-06-22 00:30:00,57.4,57.1,30.16,ESE,113,0.0,0.0,99,0.00,,,0.00,Wunderground v.1.15,2013-06-22 04:30:00,
2013-06-22 00:36:00,57.1,56.8,30.16,ESE,113,0.0,0.0,99,0.00,,,0.00,Wunderground v.1.15,2013-06-22 04:36:00,
2013-06-22 00:42:00,56.8,56.5,30.16,ESE,113,0.0,0.0,99,0.00,,,0.00,Wunderground v.1.15,2013-06-22 04:42:00,
2013-06-22 00:48:00,56.8,56.5,30.16,ESE,113,0.0,0.0,99,0.00,,,0.00,Wunderground v.1.15,2013-06-22 04:48:00,
2013-06-22 00:54:00,56.7,56.4,30.16,ESE,113,0.0,0.0,99,0.00,,,0.00,Wunderground v.1.15,2013-06-22 04:54:00,
2013-06-22 01:00:00,56.8,56.5,30.16,ESE,113,0.0,0.0,99,0.00,,,0.00,Wunderground v.1.15,2013-06-22 05:00:00,
2013-06-22 01:06:00,56.7,56.4,30.16,ESE,113,0.0,0.0,99,0.00,,,0.00,Wunderground v.1.15,2013-06-22 05:06:00,
2013-06-22 01:11:00,56.7,56.4,30.17,ESE,113,0.0,0.0,99,0.00,,,0.00,Wunderground v.1.15,2013-06-22 05:11:00,
2013-06-22 01:17:00,56.8,56.5,30.17,ESE,113,0.0,0.0,99,0.00,,,0.00,Wunderground v.1.15,2013-06-22 05:17:00,
2013-06-22 01:23:00,56.6,56.3,30.18,ESE,113,0.0,0.0,99,0.00,,,0.00,Wunderground v.1.15,2013-06-22 05:23:00,
2013-06-22 01:29:00,56.6,56.3,30.18,ESE,113,0.0,0.0,99,0.00,,,0.00,Wunderground v.1.15,2013-06-22 05:29:00,
2013-06-22 01:34:00,56.6,56.3,30.17,ESE,113,0.0,0.0,99,0.00,,,0.00,Wunderground v.1.15,2013-06-22 05:34:00,
2013-06-22 01:40:00,56.5,56.2,30.18,ESE,113,0.0,0.0,99,0.00,,,0.00,Wunderground v.1.15,2013-06-22 05:40:00,
2013-06-22 01:46:00,56.5,56.2,30.18,ESE,113,0.0,0.0,99,0.00,,,0.00,Wunderground v.1.15,2013-06-22 05:46:00,
2013-06-22 01:51:00,56.4,56.1,30.18,ESE,113,0.0,0.0,99,0.00,,,0.00,Wunderground v.1.15,2013-06-22 05:51:00,
2013-06-22 01:56:00,56.3,56.0,30.18,ESE,113,0.0,0.0,99,0.00,,,0.00,Wunderground v.1.15,2013-06-22 05:56:00,
2013-06-22 02:02:00,56.4,56.1,30.17,ESE,113,0.0,0.0,99,0.00,,,0.00,Wunderground v.1.15,2013-06-22 06:02:00,
2013-06-22 02:08:00,56.4,56.1,30.17,ESE,113,0.0,0.0,99,0.00,,,0.00,Wunderground v.1.15,2013-06-22 06:08:00,
2013-06-22 02:14:00,56.1,55.8,30.18,ESE,113,0.0,0.0,99,0.00,,,0.00,Wunderground v.1.15,2013-06-22 06:14:00,
2013-06-22 02:20:00,56.2,55.9,30.17,ESE,113,0.0,0.0,99,0.00,,,0.00,Wunderground v.1.15,2013-06-22 06:20:00,
2013-06-22 02:25:00,56.2,55.9,30.17,ESE,113,0.0,0.0,99,0.00,,,0.00,Wunderground v.1.15,2013-06-22 06:25:00,
2013-06-22 02:31:00,56.1,55.8,30.17,ESE,113,0.0,0.0,99,0.00,,,0.00,Wunderground v.1.15,2013-06-22 06:31:00,
2013-06-22 02:37:00,55.9,55.6,30.17,ESE,113,0.0,0.0,99,0.00,,,0.00,Wunderground v.1.15,2013-06-22 06:37:00,
2013-06-22 02:43:00,55.8,55.5,30.17,ESE,113,0.0,0.0,99,0.00,,,0.00,Wunderground v.1.15,2013-06-22 06:43:00,
2013-06-22 02:49:00,55.7,55.4,30.17,ESE,113,0.0,0.0,99,0.00,,,0.00,Wunderground v.1.15,2013-06-22 06:49:00,
2013-06-22 02:54:00,55.4,55.1,30.17,ESE,113,0.0,0.0,99,0.00,,,0.00,Wunderground v.1.15,2013-06-22 06:54:00,
2013-06-22 02:59:00,55.4,55.1,30.17,ESE,113,0.0,0.0,99,0.00,,,0.00,Wunderground v.1.15,2013-06-22 06:59:00,
2013-06-22 03:04:00,55.4,55.1,30.17,ESE,113,0.0,0.0,99,0.00,,,0.00,Wunderground v.1.15,2013-06-22 07:04:00,
2013-06-22 03:10:00,55.5,55.2,30.16,ESE,113,0.0,0.0,99,0.00,,,0.00,Wunderground v.1.15,2013-06-22 07:10:00,
2013-06-22 03:15:00,55.5,55.2,30.16,ESE,113,0.0,0.0,99,0.00,,,0.00,Wunderground v.1.15,2013-06-22 07:15:00,
2013-06-22 03:21:00,55.5,55.2,30.16,ESE,113,0.0,0.0,99,0.00,,,0.00,Wunderground v.1.15,2013-06-22 07:21:00,
2013-06-22 03:27:00,55.4,55.1,30.15,ESE,113,0.0,0.0,99,0.00,,,0.00,Wunderground v.1.15,2013-06-22 07:27:00,
2013-06-22 03:33:00,55.3,55.0,30.15,ESE,113,0.0,0.0,99,0.00,,,0.00,Wunderground v.1.15,2013-06-22 07:33:00,
2013-06-22 03:38:00,54.9,54.6,30.15,ESE,113,0.0,0.0,99,0.00,,,0.00,Wunderground v.1.15,2013-06-22 07:38:00,
2013-06-22 03:44:00,54.7,54.4,30.15,ESE,113,0.0,0.0,99,0.00,,,0.00,Wunderground v.1.15,2013-06-22 07:44:00,
2013-06-22 03:50:00,54.8,54.5,30.15,ESE,113,0.0,0.0,99,0.00,,,0.00,Wunderground v.1.15,2013-06-22 07:50:00,
2013-06-22 03:55:00,54.7,54.4,30.15,ESE,113,0.0,0.0,99,0.00,,,0.00,Wunderground v.1.15,2013-06-22 07:55:00,
2013-06-22 04:00:00,54.6,54.3,30.15,ESE,113,0.0,0.0,99,0.00,,,0.00,Wunderground v.1.15,2013-06-22 08:00:00,
2013-06-22 04:06:00,54.7,54.4,30.15,ESE,113,0.0,0.0,99,0.00,,,0.00,Wunderground v.1.15,2013-06-22 08:06:00,
2013-06-22 04:12:00,54.8,54.5,30.15,ESE,113,0.0,0.0,99,0.00,,,0.00,Wunderground v.1.15,2013-06-22 08:12:00,
2013-06-22 04:17:00,55.0,54.7,30.15,ESE,113,0.0,0.0,99,0.00,,,0.00,Wunderground v.1.15,2013-06-22 08:17:00,
2013-06-22 04:23:00,55.0,54.7,30.15,ESE,113,0.0,0.0,99,0.00,,,0.00,Wunderground v.1.15,2013-06-22 08:23:00,
2013-06-22 04:29:00,54.9,54.6,30.15,ESE,113,0.0,0.0,99,0.00,,,0.00,Wunderground v.1.15,2013-06-22 08:29:00,
2013-06-22 04:35:00,54.6,54.3,30.16,ESE,113,0.0,0.0,99,0.00,,,0.00,Wunderground v.1.15,2013-06-22 08:35:00,
2013-06-22 04:41:00,54.5,54.2,30.16,ESE,113,0.0,0.0,99,0.00,,,0.00,Wunderground v.1.15,2013-06-22 08:41:00,
2013-06-22 04:46:00,54.5,54.2,30.15,ESE,113,0.0,0.0,99,0.00,,,0.00,Wunderground v.1.15,2013-06-22 08:46:00,
2013-06-22 04:52:00,54.4,54.1,30.16,ESE,113,0.0,0.0,99,0.00,,,0.00,Wunderground v.1.15,2013-06-22 08:52:00,
2013-06-22 04:57:00,54.4,54.1,30.16,ESE,113,0.0,0.0,99,0.00,,,0.00,Wunderground v.1.15,2013-06-22 08:57:00,
2013-06-22 05:03:00,54.3,54.0,30.15,ESE,113,0.0,0.0,99,0.00,,,0.00,Wunderground v.1.15,2013-06-22 09:03:00,
2013-06-22 05:09:00,54.5,54.2,30.15,ESE,113,0.0,0.0,99,0.00,,,0.00,Wunderground v.1.15,2013-06-22 09:09:00,
2013-06-22 05:15:00,54.3,54.0,30.15,ESE,113,0.0,0.0,99,0.00,,,0.00,Wunderground v.1.15,2013-06-22 09:15:00,
2013-06-22 05:20:00,54.2,53.9,30.15,ESE,113,0.0,0.0,99,0.00,,,0.00,Wunderground v.1.15,2013-06-22 09:20:00,
2013-06-22 05:26:00,54.2,53.9,30.15,ESE,113,0.0,0.0,99,0.00,,,0.00,Wunderground v.1.15,2013-06-22 09:26:00,
2013-06-22 05:32:00,54.3,54.0,30.15,ESE,113,0.0,0.0,99,0.00,,,0.00,Wunderground v.1.15,2013-06-22 09:32:00,
2013-06-22 05:37:00,54.2,53.9,30.14,ESE,113,0.0,0.0,99,0.00,,,0.00,Wunderground v.1.15,2013-06-22 09:37:00,
2013-06-22 05:43:00,53.9,53.6,30.15,ESE,113,0.0,0.0,99,0.00,,,0.00,Wunderground v.1.15,2013-06-22 09:43:00,
2013-06-22 05:49:00,54.0,53.7,30.14,ESE,113,0.0,0.0,99,0.00,,,0.00,Wunderground v.1.15,2013-06-22 09:49:00,
2013-06-22 05:55:00,54.0,53.7,30.15,ESE,113,0.0,0.0,99,0.00,,,0.00,Wunderground v.1.15,2013-06-22 09:55:00,
2013-06-22 06:01:00,53.9,53.6,30.15,ESE,113,0.0,0.0,99,0.00,,,0.00,Wunderground v.1.15,2013-06-22 10:01:00,
2013-06-22 06:06:00,54.1,53.8,30.15,ESE,113,0.0,0.0,99,0.00,,,0.00,Wunderground v.1.15,2013-06-22 10:06:00,
2013-06-22 06:12:00,54.0,53.7,30.15,ESE,113,0.0,0.0,99,0.00,,,0.00,Wunderground v.1.15,2013-06-22 10:12:00,
2013-06-22 06:18:00,54.1,53.8,30.15,ESE,113,0.0,0.0,99,0.00,,,0.00,Wunderground v.1.15,2013-06-22 10:18:00,
2013-06-22 06:24:00,54.2,53.9,30.15,ESE,113,0.0,0.0,99,0.00,,,0.00,Wunderground v.1.15,2013-06-22 10:24:00,
2013-06-22 06:30:00,54.4,54.1,30.15,ESE,113,0.0,0.0,99,0.00,,,0.00,Wunderground v.1.15,2013-06-22 10:30:00,
2013-06-22 06:35:00,54.5,54.2,30.15,ESE,113,0.0,0.0,99,0.00,,,0.00,Wunderground v.1.15,2013-06-22 10:35:00,
2013-06-22 06:41:00,54.6,54.3,30.15,ESE,113,0.0,0.0,99,0.00,,,0.00,Wunderground v.1.15,2013-06-22 10:41:00,
2013-06-22 06:47:00,54.7,54.4,30.15,ESE,113,0.0,0.0,99,0.00,,,0.00,Wunderground v.1.15,2013-06-22 10:47:00,
2013-06-22 06:52:00,54.8,54.5,30.15,ESE,113,0.0,0.0,99,0.00,,,0.00,Wunderground v.1.15,2013-06-22 10:52:00,
2013-06-22 06:58:00,54.9,54.6,30.15,ESE,113,0.0,0.0,99,0.00,,,0.00,Wunderground v.1.15,2013-06-22 10:58:00,
2013-06-22 07:03:00,55.1,54.8,30.16,ESE,113,0.0,0.0,99,0.00,,,0.00,Wunderground v.1.15,2013-06-22 11:03:00,
2013-06-22 07:08:00,55.5,55.2,30.16,ESE,113,0.0,0.0,99,0.00,,,0.00,Wunderground v.1.15,2013-06-22 11:08:00,
2013-06-22 07:14:00,56.0,55.7,30.16,ESE,113,0.0,0.0,99,0.00,,,0.00,Wunderground v.1.15,2013-06-22 11:14:00,
2013-06-22 07:20:00,56.7,56.4,30.16,ESE,113,0.0,0.0,99,0.00,,,0.00,Wunderground v.1.15,2013-06-22 11:20:00,
2013-06-22 07:25:00,57.5,57.2,30.16,ESE,113,0.0,0.0,99,0.00,,,0.00,Wunderground v.1.15,2013-06-22 11:25:00,
2013-06-22 07:31:00,58.0,57.7,30.16,ESE,113,0.0,0.0,99,0.00,,,0.00,Wunderground v.1.15,2013-06-22 11:31:00,
2013-06-22 07:37:00,58.9,58.6,30.16,ESE,113,0.0,0.0,99,0.00,,,0.00,Wunderground v.1.15,2013-06-22 11:37:00,
2013-06-22 07:43:00,60.1,59.8,30.17,ESE,113,0.0,0.0,99,0.00,,,0.00,Wunderground v.1.15,2013-06-22 11:43:00,
2013-06-22 07:49:00,61.4,61.1,30.17,ESE,113,0.0,0.0,99,0.00,,,0.00,Wunderground v.1.15,2013-06-22 11:49:00,
2013-06-22 07:54:00,62.3,62.0,30.17,ESE,113,0.0,0.0,99,0.00,,,0.00,Wunderground v.1.15,2013-06-22 11:54:00,
2013-06-22 08:01:00,63.1,62.8,30.17,ESE,113,0.0,0.0,99,0.00,,,0.00,Wunderground v.1.15,2013-06-22 12:01:00,
2013-06-22 08:07:00,63.9,63.6,30.17,ESE,113,0.0,0.0,99,0.00,,,0.00,Wunderground v.1.15,2013-06-22 12:07:00,
2013-06-22 08:12:00,64.7,64.4,30.17,ESE,113,0.0,0.0,99,0.00,,,0.00,Wunderground v.1.15,2013-06-22 12:12:00,
2013-06-22 08:18:00,65.0,64.7,30.18,ESE,113,0.0,0.0,99,0.00,,,0.00,Wunderground v.1.15,2013-06-22 12:18:00,
2013-06-22 08:24:00,65.6,65.3,30.18,ESE,113,0.0,1.0,99,0.00,,,0.00,Wunderground v.1.15,2013-06-22 12:24:00,
2013-06-22 08:30:00,66.1,65.8,30.18,ESE,113,0.0,1.0,99,0.00,,,0.00,Wunderground v.1.15,2013-06-22 12:30:00,
2013-06-22 08:36:00,66.6,66.3,30.18,ESE,113,0.0,1.0,99,0.00,,,0.00,Wunderground v.1.15,2013-06-22 12:36:00,
2013-06-22 08:41:00,67.3,67.0,30.18,SE,128,1.0,2.0,99,0.00,,,0.00,Wunderground v.1.15,2013-06-22 12:41:00,
2013-06-22 08:47:00,68.5,68.2,30.18,SE,136,2.0,5.0,99,0.00,,,0.00,Wunderground v.1.15,2013-06-22 12:47:00,
2013-06-22 08:53:00,69.5,69.2,30.18,SE,136,2.0,2.0,99,0.00,,,0.00,Wunderground v.1.15,2013-06-22 12:53:00,
2013-06-22 08:59:00,70.9,70.0,30.19,North,355,1.0,3.0,97,0.00,,,0.00,Wunderground v.1.15,2013-06-22 12:59:00,
2013-06-22 09:05:00,71.9,69.1,30.19,South,186,1.0,5.0,91,0.00,,,0.00,Wunderground v.1.15,2013-06-22 13:05:00,
2013-06-22 09:11:00,72.6,68.8,30.19,SSE,160,1.0,5.0,88,0.00,,,0.00,Wunderground v.1.15,2013-06-22 13:11:00,
2013-06-22 09:17:00,73.1,69.0,30.19,South,171,1.0,5.0,87,0.00,,,0.00,Wunderground v.1.15,2013-06-22 13:17:00,
2013-06-22 09:22:00,73.7,69.2,30.19,SSE,157,2.0,5.0,86,0.00,,,0.00,Wunderground v.1.15,2013-06-22 13:22:00,
2013-06-22 09:28:00,74.1,69.0,30.19,South,176,1.0,5.0,84,0.00,,,0.00,Wunderground v.1.15,2013-06-22 13:28:00,
2013-06-22 09:34:00,74.5,70.0,30.19,SSE,165,1.0,8.0,86,0.00,,,0.00,Wunderground v.1.15,2013-06-22 13:34:00,
2013-06-22 09:40:00,75.1,69.6,30.19,SSW,200,1.0,1.0,83,0.00,,,0.00,Wunderground v.1.15,2013-06-22 13:40:00,
2013-06-22 09:46:00,75.7,70.9,30.19,SSW,207,1.0,5.0,85,0.00,,,0.00,Wunderground v.1.15,2013-06-22 13:46:00,
2013-06-22 09:52:00,76.1,70.2,30.19,South,169,1.0,5.0,82,0.00,,,0.00,Wunderground v.1.15,2013-06-22 13:52:00,
2013-06-22 09:57:00,76.3,70.8,30.19,South,171,2.0,5.0,83,0.00,,,0.00,Wunderground v.1.15,2013-06-22 13:57:00,
2013-06-22 10:03:00,76.8,70.2,30.19,ESE,102,1.0,8.0,80,0.00,,,0.00,Wunderground v.1.15,2013-06-22 14:03:00,
2013-06-22 10:09:00,77.8,71.9,30.19,North,11,1.0,8.0,82,0.00,,,0.00,Wunderground v.1.15,2013-06-22 14:09:00,
2013-06-22 10:15:00,78.0,70.6,30.19,NNW,330,1.0,8.0,78,0.00,,,0.00,Wunderground v.1.15,2013-06-22 14:15:00,
2013-06-22 10:20:00,78.0,70.6,30.19,WNW,293,2.0,8.0,78,0.00,,,0.00,Wunderground v.1.15,2013-06-22 14:20:00,
2013-06-22 10:26:00,78.4,71.7,30.19,North,5,2.0,8.0,80,0.00,,,0.00,Wunderground v.1.15,2013-06-22 14:26:00,
2013-06-22 10:31:00,79.2,72.5,30.19,SSE,152,2.0,8.0,80,0.00,,,0.00,Wunderground v.1.15,2013-06-22 14:31:00,
2013-06-22 10:37:00,79.1,71.3,30.19,SE,145,1.0,8.0,77,0.00,,,0.00,Wunderground v.1.15,2013-06-22 14:37:00,
2013-06-22 10:42:00,79.4,72.7,30.19,SSE,160,1.0,8.0,80,0.00,,,0.00,Wunderground v.1.15,2013-06-22 14:42:00,
2013-06-22 10:48:00,79.5,71.3,30.18,South,174,2.0,8.0,76,0.00,,,0.00,Wunderground v.1.15,2013-06-22 14:48:00,
2013-06-22 10:54:00,79.6,72.5,30.18,South,173,1.0,8.0,79,0.00,,,0.00,Wunderground v.1.15,2013-06-22 14:54:00,
2013-06-22 11:00:00,79.5,72.0,30.19,South,184,1.0,1.0,78,0.00,,,0.00,Wunderground v.1.15,2013-06-22 15:00:00,
2013-06-22 11:06:00,79.8,71.9,30.19,SSE,156,3.0,8.0,77,0.00,,,0.00,Wunderground v.1.15,2013-06-22 15:06:00,
2013-06-22 11:12:00,79.5,71.7,30.18,South,170,3.0,8.0,77,0.00,,,0.00,Wunderground v.1.15,2013-06-22 15:12:00,
2013-06-22 11:18:00,80.2,72.3,30.18,SE,134,2.0,8.0,77,0.00,,,0.00,Wunderground v.1.15,2013-06-22 15:18:00,
2013-06-22 11:23:00,80.3,72.4,30.18,ESE,103,2.0,8.0,77,0.00,,,0.00,Wunderground v.1.15,2013-06-22 15:23:00,
2013-06-22 11:29:00,81.1,72.8,30.18,SE,126,2.0,8.0,76,0.00,,,0.00,Wunderground v.1.15,2013-06-22 15:29:00,
2013-06-22 11:35:00,81.2,72.9,30.19,WSW,242,2.0,8.0,76,0.00,,,0.00,Wunderground v.1.15,2013-06-22 15:35:00,
2013-06-22 11:41:00,81.8,73.9,30.19,ESE,123,1.0,8.0,77,0.00,,,0.00,Wunderground v.1.15,2013-06-22 15:41:00,
2013-06-22 11:46:00,82.4,73.7,30.19,South,189,1.0,8.0,75,0.00,,,0.00,Wunderground v.1.15,2013-06-22 15:46:00,
2013-06-22 11:52:00,81.8,71.9,30.19,SE,142,1.0,8.0,72,0.00,,,0.00,Wunderground v.1.15,2013-06-22 15:52:00,
2013-06-22 11:57:00,81.7,72.2,30.19,NW,326,2.0,8.0,73,0.00,,,0.00,Wunderground v.1.15,2013-06-22 15:57:00,
2013-06-22 12:02:00,82.2,72.7,30.19,NNW,338,2.0,8.0,73,0.00,,,0.00,Wunderground v.1.15,2013-06-22 16:02:00,
2013-06-22 12:08:00,82.4,73.3,30.18,South,179,2.0,8.0,74,0.00,,,0.00,Wunderground v.1.15,2013-06-22 16:08:00,
2013-06-22 12:14:00,82.7,73.6,30.18,SSE,160,2.0,8.0,74,0.00,,,0.00,Wunderground v.1.15,2013-06-22 16:14:00,
2013-06-22 12:20:00,82.1,72.6,30.18,SSE,157,3.0,3.0,73,0.00,,,0.00,Wunderground v.1.15,2013-06-22 16:20:00,
2013-06-22 12:25:00,82.9,74.6,30.18,SE,141,3.0,8.0,76,0.00,,,0.00,Wunderground v.1.15,2013-06-22 16:25:00,
2013-06-22 12:31:00,82.4,73.3,30.18,NNE,22,1.0,8.0,74,0.00,,,0.00,Wunderground v.1.15,2013-06-22 16:31:00,
2013-06-22 12:37:00,81.1,71.6,30.18,SE,143,0.0,8.0,73,0.00,,,0.00,Wunderground v.1.15,2013-06-22 16:37:00,
2013-06-22 12:43:00,80.6,71.9,30.18,ESE,115,0.0,8.0,75,0.00,,,0.00,Wunderground v.1.15,2013-06-22 16:43:00,
2013-06-22 12:48:00,82.2,72.7,30.18,ESE,105,0.0,8.0,73,0.00,,,0.00,Wunderground v.1.15,2013-06-22 16:48:00,
2013-06-22 12:54:00,83.6,74.8,30.18,NE,45,0.0,8.0,75,0.00,,,0.00,Wunderground v.1.15,2013-06-22 16:54:00,
2013-06-22 12:59:00,83.2,74.0,30.18,South,186,1.0,8.0,74,0.00,,,0.00,Wunderground v.1.15,2013-06-22 16:59:00,
2013-06-22 13:04:00,83.1,74.4,30.18,SSE,155,1.0,9.0,75,0.00,,,0.00,Wunderground v.1.15,2013-06-22 17:04:00,
2013-06-22 13:10:00,83.4,75.4,30.17,South,170,2.0,2.0,77,0.00,,,0.00,Wunderground v.1.15,2013-06-22 17:10:00,
2013-06-22 13:16:00,83.7,74.1,30.17,ESE,115,1.0,9.0,73,0.00,,,0.00,Wunderground v.1.15,2013-06-22 17:16:00,
2013-06-22 13:21:00,83.5,73.5,30.17,SSE,150,2.0,9.0,72,0.00,,,0.00,Wunderground v.1.15,2013-06-22 17:21:00,
2013-06-22 13:27:00,83.7,72.9,30.17,NW,310,2.0,9.0,70,0.00,,,0.00,Wunderground v.1.15,2013-06-22 17:27:00,
2013-06-22 13:33:00,84.1,75.3,30.17,ESE,105,1.0,9.0,75,0.00,,,0.00,Wunderground v.1.15,2013-06-22 17:33:00,
2013-06-22 13:38:00,84.3,74.7,30.16,South,170,4.0,9.0,73,0.00,,,0.00,Wunderground v.1.15,2013-06-22 17:38:00,
2013-06-22 13:44:00,84.5,75.7,30.16,SE,145,4.0,9.0,75,0.00,,,0.00,Wunderground v.1.15,2013-06-22 17:44:00,
2013-06-22 13:50:00,84.0,73.6,30.16,SSE,148,2.0,9.0,71,0.00,,,0.00,Wunderground v.1.15,2013-06-22 17:50:00,
2013-06-22 13:55:00,83.0,75.0,30.16,SE,141,2.0,9.0,77,0.00,,,0.00,Wunderground v.1.15,2013-06-22 17:55:00,
2013-06-22 14:00:00,82.9,73.4,30.16,SSE,149,2.0,2.0,73,0.00,,,0.00,Wunderground v.1.15,2013-06-22 18:00:00,
2013-06-22 14:06:00,83.2,73.2,30.16,SSE,148,1.0,11.0,72,0.00,,,0.00,Wunderground v.1.15,2013-06-22 18:06:00,
2013-06-22 14:12:00,84.1,74.5,30.16,SSE,163,1.0,11.0,73,0.00,,,0.00,Wunderground v.1.15,2013-06-22 18:12:00,
2013-06-22 14:18:00,82.6,73.5,30.16,SE,140,2.0,11.0,74,0.00,,,0.00,Wunderground v.1.15,2013-06-22 18:18:00,
2013-06-22 14:23:00,82.0,72.9,30.16,SE,140,1.0,11.0,74,0.00,,,0.00,Wunderground v.1.15,2013-06-22 18:23:00,
2013-06-22 14:29:00,83.9,74.3,30.15,SE,128,2.0,11.0,73,0.00,,,0.00,Wunderground v.1.15,2013-06-22 18:29:00,
2013-06-22 14:35:00,83.7,72.9,30.15,SSE,159,3.0,11.0,70,0.00,,,0.00,Wunderground v.1.15,2013-06-22 18:35:00,
2013-06-22 14:41:00,83.1,72.3,30.15,SSE,167,2.0,11.0,70,0.00,,,0.00,Wunderground v.1.15,2013-06-22 18:41:00,
2013-06-22 14:46:00,83.5,73.5,30.15,SE,138,1.0,11.0,72,0.00,,,0.00,Wunderground v.1.15,2013-06-22 18:46:00,
2013-06-22 14:52:00,83.1,72.3,30.15,WNW,302,2.0,11.0,70,0.00,,,0.00,Wunderground v.1.15,2013-06-22 18:52:00,
2013-06-22 14:57:00,83.3,73.3,30.15,SSE,155,2.0,11.0,72,0.00,,,0.00,Wunderground v.1.15,2013-06-22 18:57:00,
2013-06-22 15:02:00,83.9,73.9,30.14,SE,145,1.0,8.0,72,0.00,,,0.00,Wunderground v.1.15,2013-06-22 19:02:00,
2013-06-22 15:08:00,84.0,72.7,30.14,SSE,161,2.0,8.0,69,0.00,,,0.00,Wunderground v.1.15,2013-06-22 19:08:00,
2013-06-22 15:14:00,84.2,73.3,30.14,ESE,110,2.0,8.0,70,0.00,,,0.00,Wunderground v.1.15,2013-06-22 19:14:00,
2013-06-22 15:20:00,84.4,72.7,30.14,SSE,161,1.0,8.0,68,0.00,,,0.00,Wunderground v.1.15,2013-06-22 19:20:00,
2013-06-22 15:26:00,84.2,72.5,30.13,ENE,65,0.0,8.0,68,0.00,,,0.00,Wunderground v.1.15,2013-06-22 19:26:00,
2013-06-22 15:31:00,84.1,72.4,30.13,SE,126,1.0,8.0,68,0.00,,,0.00,Wunderground v.1.15,2013-06-22 19:31:00,
2013-06-22 15:37:00,84.1,72.4,30.13,SE,132,3.0,8.0,68,0.00,,,0.00,Wunderground v.1.15,2013-06-22 19:37:00,
2013-06-22 15:42:00,83.6,73.2,30.13,ESE,119,3.0,8.0,71,0.00,,,0.00,Wunderground v.1.15,2013-06-22 19:42:00,
2013-06-22 15:48:00,83.9,73.5,30.13,SSE,150,4.0,8.0,71,0.00,,,0.00,Wunderground v.1.15,2013-06-22 19:48:00,
2013-06-22 15:54:00,83.8,72.5,30.13,SE,146,3.0,8.0,69,0.00,,,0.00,Wunderground v.1.15,2013-06-22 19:54:00,
2013-06-22 16:01:00,83.8,73.0,30.12,ESE,119,3.0,3.0,70,0.00,,,0.00,Wunderground v.1.15,2013-06-22 20:01:00,
2013-06-22 16:07:00,83.9,73.1,30.12,South,180,3.0,6.0,70,0.00,,,0.00,Wunderground v.1.15,2013-06-22 20:07:00,
2013-06-22 16:13:00,84.0,71.9,30.12,ESE,114,1.0,6.0,67,0.00,,,0.00,Wunderground v.1.15,2013-06-22 20:13:00,
2013-06-22 16:19:00,84.3,72.1,30.11,South,183,4.0,10.0,67,0.00,,,0.00,Wunderground v.1.15,2013-06-22 20:19:00,
2013-06-22 16:24:00,84.2,72.9,30.11,ESE,120,4.0,6.0,69,0.00,,,0.00,Wunderground v.1.15,2013-06-22 20:24:00,
2013-06-22 16:30:00,84.5,72.3,30.11,South,184,2.0,6.0,67,0.00,,,0.00,Wunderground v.1.15,2013-06-22 20:30:00,
2013-06-22 16:35:00,84.4,73.5,30.11,East,79,1.0,6.0,70,0.00,,,0.00,Wunderground v.1.15,2013-06-22 20:35:00,
2013-06-22 16:41:00,84.2,72.5,30.10,SE,140,2.0,7.0,68,0.00,,,0.00,Wunderground v.1.15,2013-06-22 20:41:00,
2013-06-22 16:47:00,84.1,72.0,30.10,SE,134,4.0,9.0,67,0.00,,,0.00,Wunderground v.1.15,2013-06-22 20:47:00,
2013-06-22 16:53:00,84.1,73.3,30.10,SE,130,3.0,7.0,70,0.00,,,0.00,Wunderground v.1.15,2013-06-22 20:53:00,
2013-06-22 16:58:00,84.0,73.2,30.10,SSE,161,2.0,7.0,70,0.00,,,0.00,Wunderground v.1.15,2013-06-22 20:58:00,
2013-06-22 17:03:00,84.1,71.1,30.09,SSE,153,2.0,12.0,65,0.00,,,0.00,Wunderground v.1.15,2013-06-22 21:03:00,
2013-06-22 17:09:00,84.0,70.5,30.09,SSE,160,3.0,12.0,64,0.00,,,0.00,Wunderground v.1.15,2013-06-22 21:09:00,
2013-06-22 17:15:00,84.0,72.7,30.08,SE,138,3.0,12.0,69,0.00,,,0.00,Wunderground v.1.15,2013-06-22 21:15:00,
2013-06-22 17:21:00,84.1,73.3,30.09,South,171,1.0,12.0,70,0.00,,,0.00,Wunderground v.1.15,2013-06-22 21:21:00,
2013-06-22 17:26:00,84.1,72.4,30.08,South,178,1.0,12.0,68,0.00,,,0.00,Wunderground v.1.15,2013-06-22 21:26:00,
2013-06-22 17:32:00,84.3,73.4,30.08,SSE,153,1.0,12.0,70,0.00,,,0.00,Wunderground v.1.15,2013-06-22 21:32:00,
2013-06-22 17:38:00,84.0,73.2,30.07,SSE,163,2.0,12.0,70,0.00,,,0.00,Wunderground v.1.15,2013-06-22 21:38:00,
2013-06-22 17:44:00,83.9,72.2,30.07,SE,144,2.0,12.0,68,0.00,,,0.00,Wunderground v.1.15,2013-06-22 21:44:00,
2013-06-22 17:50:00,83.7,74.9,30.07,South,175,1.0,1.0,75,0.00,,,0.00,Wunderground v.1.15,2013-06-22 21:50:00,
2013-06-22 17:56:00,83.6,73.2,30.06,South,188,1.0,12.0,71,0.00,,,0.00,Wunderground v.1.15,2013-06-22 21:56:00,
2013-06-22 18:02:00,83.4,73.0,30.06,SE,142,2.0,8.0,71,0.00,,,0.00,Wunderground v.1.15,2013-06-22 22:02:00,
2013-06-22 18:07:00,83.3,72.5,30.06,SSE,166,1.0,8.0,70,0.00,,,0.00,Wunderground v.1.15,2013-06-22 22:07:00,
2013-06-22 18:13:00,83.1,72.3,30.06,South,171,1.0,8.0,70,0.00,,,0.00,Wunderground v.1.15,2013-06-22 22:13:00,
2013-06-22 18:19:00,82.8,73.3,30.05,SSE,149,1.0,8.0,73,0.00,,,0.00,Wunderground v.1.15,2013-06-22 22:19:00,
2013-06-22 18:25:00,82.2,73.9,30.06,SE,142,2.0,8.0,76,0.00,,,0.00,Wunderground v.1.15,2013-06-22 22:25:00,
2013-06-22 18:30:00,82.3,72.4,30.05,SE,131,1.0,8.0,72,0.00,,,0.00,Wunderground v.1.15,2013-06-22 22:30:00,
2013-06-22 18:36:00,82.3,73.2,30.05,SE,128,1.0,8.0,74,0.00,,,0.00,Wunderground v.1.15,2013-06-22 22:36:00,
2013-06-22 18:42:00,82.2,73.5,30.05,SE,144,2.0,8.0,75,0.00,,,0.00,Wunderground v.1.15,2013-06-22 22:42:00,
2013-06-22 18:48:00,82.1,72.6,30.05,SSE,160,2.0,8.0,73,0.00,,,0.00,Wunderground v.1.15,2013-06-22 22:48:00,
2013-06-22 18:53:00,82.1,71.8,30.05,SSE,150,1.0,8.0,71,0.00,,,0.00,Wunderground v.1.15,2013-06-22 22:53:00,
2013-06-22 18:59:00,81.5,72.4,30.05,SSE,150,0.0,8.0,74,0.00,,,0.00,Wunderground v.1.15,2013-06-22 22:59:00,
2013-06-22 19:04:00,81.1,73.2,30.05,SE,136,0.0,8.0,77,0.00,,,0.00,Wunderground v.1.15,2013-06-22 23:04:00,
2013-06-22 19:10:00,80.2,72.7,30.06,SE,136,0.0,8.0,78,0.00,,,0.00,Wunderground v.1.15,2013-06-22 23:10:00,
2013-06-22 19:15:00,79.4,72.7,30.06,SE,136,0.0,8.0,80,0.00,,,0.00,Wunderground v.1.15,2013-06-22 23:15:00,
2013-06-22 19:21:00,78.7,73.5,30.06,SE,136,0.0,8.0,84,0.00,,,0.00,Wunderground v.1.15,2013-06-22 23:21:00,
2013-06-22 19:27:00,78.4,73.5,30.06,SE,136,0.0,8.0,85,0.00,,,0.00,Wunderground v.1.15,2013-06-22 23:27:00,
2013-06-22 19:33:00,77.9,73.4,30.07,SE,136,0.0,8.0,86,0.00,,,0.00,Wunderground v.1.15,2013-06-22 23:33:00,
2013-06-22 19:39:00,77.4,72.9,30.07,SE,136,0.0,8.0,86,0.00,,,0.00,Wunderground v.1.15,2013-06-22 23:39:00,
2013-06-22 19:45:00,76.9,72.7,30.07,SE,136,0.0,8.0,87,0.00,,,0.00,Wunderground v.1.15,2013-06-22 23:45:00,
2013-06-22 19:50:00,76.5,72.7,30.07,SE,136,0.0,8.0,88,0.00,,,0.00,Wunderground v.1.15,2013-06-22 23:50:00,
2013-06-22 19:56:00,76.2,72.4,30.07,SE,136,0.0,8.0,88,0.00,,,0.00,Wunderground v.1.15,2013-06-22 23:56:00,
2013-06-22 20:01:00,75.9,72.8,30.07,SE,136,0.0,0.0,90,0.00,,,0.00,Wunderground v.1.15,2013-06-23 00:01:00,
2013-06-22 20:07:00,75.5,72.7,30.07,SE,136,0.0,0.0,91,0.00,,,0.00,Wunderground v.1.15,2013-06-23 00:07:00,
2013-06-22 20:12:00,75.4,72.6,30.07,SE,136,0.0,0.0,91,0.00,,,0.00,Wunderground v.1.15,2013-06-23 00:12:00,
2013-06-22 20:18:00,74.9,72.4,30.07,SE,136,0.0,0.0,92,0.00,,,0.00,Wunderground v.1.15,2013-06-23 00:18:00,
2013-06-22 20:24:00,74.4,71.9,30.07,SE,136,0.0,0.0,92,0.00,,,0.00,Wunderground v.1.15,2013-06-23 00:24:00,
2013-06-22 20:30:00,74.0,71.8,30.07,SE,136,0.0,0.0,93,0.00,,,0.00,Wunderground v.1.15,2013-06-23 00:30:00,
2013-06-22 20:35:00,73.7,71.9,30.07,SE,136,0.0,0.0,94,0.00,,,0.00,Wunderground v.1.15,2013-06-23 00:35:00,
2013-06-22 20:41:00,73.3,71.8,30.07,SE,136,0.0,0.0,95,0.00,,,0.00,Wunderground v.1.15,2013-06-23 00:41:00,
2013-06-22 20:47:00,72.8,71.3,30.07,SE,136,0.0,0.0,95,0.00,,,0.00,Wunderground v.1.15,2013-06-23 00:47:00,
2013-06-22 20:53:00,72.1,70.9,30.08,SE,136,0.0,0.0,96,0.00,,,0.00,Wunderground v.1.15,2013-06-23 00:53:00,
2013-06-22 20:59:00,71.6,70.7,30.08,SE,136,0.0,0.0,97,0.00,,,0.00,Wunderground v.1.15,2013-06-23 00:59:00,
2013-06-22 21:04:00,71.3,70.4,30.08,SE,136,0.0,0.0,97,0.00,,,0.00,Wunderground v.1.15,2013-06-23 01:04:00,
2013-06-22 21:10:00,70.8,69.9,30.08,SE,136,0.0,0.0,97,0.00,,,0.00,Wunderground v.1.15,2013-06-23 01:10:00,
2013-06-22 21:16:00,70.5,69.9,30.08,SE,136,0.0,0.0,98,0.00,,,0.00,Wunderground v.1.15,2013-06-23 01:16:00,
2013-06-22 21:21:00,70.1,69.5,30.08,SE,136,0.0,0.0,98,0.00,,,0.00,Wunderground v.1.15,2013-06-23 01:21:00,
2013-06-22 21:27:00,69.4,68.8,30.08,SE,136,0.0,0.0,98,0.00,,,0.00,Wunderground v.1.15,2013-06-23 01:27:00,